Regional Weather Roundup
Issued by NWS Melbourne, FL

Current Version | Previous Version | Text Only | Print | Product List | Glossary On
Versions: 1 2 3 4 5 6 7 8 9 10 11 12 13 14 15 16 17 18 19 20 21 22 23 24 25 26 27
127
ASUS42 KMLB 282006
RWRMLB
HOURLY WEATHER ROUNDUP AROUND FLORIDA
NATIONAL WEATHER SERVICE OFFICE MELBOURNE FL
400 PM EDT SUN MAY 28 2017

CITY           SKY/WX    TMP DP  RH WIND       PRES   REMARKS
MELBOURNE      SUNNY     88  69  53 E9        29.98F
FORT PIERCE    SUNNY     89  71  55 E9        29.99F
ORLANDO INTL   MOSUNNY   92  65  40 NW14G21   29.99F
DAYTONA BEACH  MOSUNNY   94  67  41 SW13G20   29.98F
VERO BEACH     SUNNY     86  68  54 E9        30.00F
$$
...ELSEWHERE ACROSS CENTRAL FLORIDA...

CITY           SKY/WX    TMP DP  RH WIND       PRES   REMARKS
PATRICK AFB    SUNNY     84  73  70 SE12      29.98F
KSC            SUNNY     90  71  53 E10G18    29.97F
CAPE CANAVERAL SUNNY     89  71  53 SE9       29.98F
TITUSVILLE     SUNNY     91  66  43 NW17      29.99F
ORLANDO EXEC   SUNNY     93  66  40 NW14G20   29.99F
LEESBURG       MOSUNNY   94  71  47 W10       30.00F HX 101
THE VILLAGES     N/A     93  70  46 W13       29.90F HX  99
SANFORD        MOSUNNY   93  64  38 W14       29.98F
DELAND         SUNNY     93  66  40 W13       29.98F
NEW SMYRNA BCH MOSUNNY   86  72  62 NE9       30.00F
ORMOND BEACH   SUNNY     91  64  40 NW14G20   29.98F
WINTER HAVEN   SUNNY     93  63  36 NW13      30.02F
KISSIMMEE      SUNNY     94  68  42 NW15      30.00F HX  98
OKEECHOBEE     SUNNY     95  64  36 W6        30.00F
TAMPA          MOSUNNY   88  71  57 NW16      30.05S
$$
...NORTHERN FLORIDA...

CITY           SKY/WX    TMP DP  RH WIND       PRES   REMARKS
PALM COAST     SUNNY     93  67  41 W13       29.98F
ST AUGUSTINE   MOSUNNY   92  67  43 NW6G17    29.97F
OCALA          MOSUNNY   93  68  43 NW12      30.00F
GAINESVILLE    SUNNY     91  66  43 W12       29.99F
JACKSONVILLE   PTSUNNY   97  60  28 W8        29.95F
TALLAHASSEE    MOSUNNY   94  69  44 NW8G17    29.98F HX  99
$$
...ALONG THE SOUTHEAST COAST TO THE KEYS...

CITY           SKY/WX    TMP DP  RH WIND       PRES   REMARKS
STUART         SUNNY     88  73  62 E9        30.02F
WEST PALM BCH  MOSUNNY   93  63  36 W10G23    30.01F
MIAMI          MOSUNNY   97  63  32 VRB3      29.99F HX  98
KEY WEST       MOSUNNY   87  77  72 S7        30.04F HX  99
$$
...MARINE REPORTS...

STATION/POSITION TIME  TEMP    WIND        PRES    WAVE   SWELL
                       AIR SEA DIR/SP/G            HT/PER HT/PER
                 (UTC) (F)     (DEG/KT/KT) (MB)    (FT/S) (FT/S)
ST AUGUSTINE FP  2000   91 80  240/  9/ 12 1015.5F
20NM E CAPE CANA 1950   79 77  100/  8/  8 1017.1F   1/ 7   2/ 7
120 E NEW SMYRNA 1950   80 80  290/  8/ 10 1016.1F   2/ 8   2/ 8
TRIDENT PIER     1948   80 78   90/  8/ 11 1017.1F
SEBASTIAN INLET  2000   76     110/  8     1016.0
4NM E PORT CANAV 1951      78                N/A     1/ 7
6NM NE FPR INLET 1930      79                N/A     1/11
SETTLEMENT PT GB 2000   83     300/  6/  7 1016.7F
$$




USA.gov is the U.S. government's official web portal to all federal, state and local government web resources and services.